Athol, MA

1:16 AM EST on February 27, 2017 (GMT -0500)
Orange Municipal

Weather History for KORE - August, 2012

Change the Weather History Date:

Sunday, August 5, 2012

  Actual Average Record
Temperature  
Mean Temperature 78 °F -  
Max Temperature 90 °F 79 °F 91 °F (2005)
Min Temperature 66 °F 57 °F 50 °F (2013)
Cooling Degree Days 12    
Growing Degree Days 28 (Base 50)    
Moisture  
Dew Point 71 °F    
Average Humidity 85    
Maximum Humidity 96    
Minimum Humidity 52    
Precipitation  
Precipitation 0.43 in - - ()
Sea Level Pressure  
Sea Level Pressure 30.05 in    
Wind  
Wind Speed 6 mph (South)    
Max Wind Speed 20 mph    
Max Gust Speed 41 mph    
Visibility 9 miles    
Events Rain , Thunderstorm    
Averages and records for this station are not official NWS values.
T = Trace of Precipitation, MM = Missing Value Source: NWS Daily Summary

Daily Weather History Graph

Daily Weather History Graph

Search for Another Location

Airport or City:

Trip Planner

Search our weather history database for the weather conditions in past years. The results will help you decide how hot, cold, wet, or windy it might be!

Date:

Astronomy

Aug. 05, 2012 Rise Set
Actual Time 5:45 AM EDT 8:03 PM EDT
Civil Twilight 5:14 AM EDT 8:35 PM EDT
Nautical Twilight 4:35 AM EDT 9:13 PM EDT
Astronomical Twilight 3:52 AM EDT 9:56 PM EDT
Moon 9:33 PM EDT (8/5) 9:38 AM EDT (8/5)
Length of Visible Light 15h 20m
Length of Day
14h 17m
Waning Gibbous, 86% of the Moon is Illuminated
Aug 5
Waning Gibbous
Aug 9
Last Quarter
Aug 17
New
Aug 24
First Quarter
Aug 31
Full

Hourly Weather History & Observations

Time (EDT) Temp. Heat Index Dew Point Humidity Pressure Visibility Wind Dir Wind Speed Gust Speed Precip Events Conditions
12:52 AM 69.1 °F - 64.9 °F 87% 30.22 in 10.0 mi Calm Calm - N/A   Overcast
1:52 AM 69.1 °F - 66.0 °F 90% 30.21 in 10.0 mi Calm Calm - N/A   Mostly Cloudy
2:06 AM 69.8 °F - 66.2 °F 88% 30.21 in 10.0 mi Calm Calm - N/A   Scattered Clouds
2:52 AM 66.9 °F - 64.9 °F 93% 30.20 in 10.0 mi NNW 4.6 mph - N/A   Clear
3:52 AM 69.1 °F - 66.9 °F 93% 30.18 in 10.0 mi South 4.6 mph - N/A   Scattered Clouds
4:01 AM 73.4 °F - 69.8 °F 88% 30.18 in 10.0 mi South 8.1 mph - N/A   Mostly Cloudy
4:18 AM 73.4 °F - 69.8 °F 88% 30.18 in 10.0 mi SSW 5.8 mph - N/A   Scattered Clouds
4:52 AM 73.0 °F - 71.1 °F 93% 30.17 in 10.0 mi SSE 3.5 mph - N/A   Scattered Clouds
5:05 AM 73.4 °F - 71.6 °F 94% 30.18 in 10.0 mi SSW 3.5 mph - N/A   Mostly Cloudy
5:16 AM 69.8 °F - 66.2 °F 88% 30.18 in 10.0 mi Calm Calm - N/A   Mostly Cloudy
5:52 AM 73.9 °F - 71.1 °F 91% 30.16 in 10.0 mi South 3.5 mph - N/A   Mostly Cloudy
6:52 AM 75.0 °F - 71.1 °F 87% 30.16 in 10.0 mi South 8.1 mph - N/A   Mostly Cloudy
7:52 AM 75.9 °F - 71.1 °F 85% 30.15 in 10.0 mi South 8.1 mph - N/A   Overcast
8:52 AM 77.0 °F - 71.1 °F 82% 30.14 in 10.0 mi SSE 10.4 mph - N/A   Overcast
9:52 AM 79.0 °F - 72.0 °F 79% 30.13 in 10.0 mi South 9.2 mph - N/A   Overcast
10:05 AM 80.6 °F 84.6 °F 71.6 °F 74% 30.13 in 10.0 mi South 11.5 mph - N/A   Scattered Clouds
10:19 AM 80.6 °F 84.6 °F 71.6 °F 74% 30.13 in 10.0 mi South 10.4 mph 18.4 mph N/A   Mostly Cloudy
10:52 AM 82.9 °F 87.5 °F 71.1 °F 67% 30.11 in 10.0 mi South 11.5 mph 18.4 mph N/A   Mostly Cloudy
11:17 AM 84.2 °F 89.6 °F 71.6 °F 66% 30.10 in 10.0 mi South 12.7 mph 18.4 mph N/A   Mostly Cloudy
11:37 AM 84.2 °F 89.6 °F 71.6 °F 66% 30.10 in 10.0 mi South 11.5 mph 21.9 mph N/A   Scattered Clouds
12:52 PM 87.1 °F 92.0 °F 70.0 °F 57% 30.05 in 10.0 mi South 13.8 mph 26.5 mph N/A   Mostly Cloudy
1:52 PM 88.0 °F 92.9 °F 70.0 °F 55% 30.03 in 10.0 mi South 12.7 mph 24.2 mph N/A   Mostly Cloudy
2:52 PM 89.1 °F 93.7 °F 69.1 °F 52% 29.99 in 10.0 mi South 18.4 mph 25.3 mph N/A   Mostly Cloudy
3:13 PM 89.6 °F 94.7 °F 69.8 °F 52% 30.00 in 10.0 mi SSW 18.4 mph 24.2 mph N/A Thunderstorm Mostly Cloudy
3:23 PM 82.4 °F 86.3 °F 69.8 °F 66% 30.04 in 1.2 mi WSW 19.6 mph 41.4 mph 0.14 in Rain , Thunderstorm Heavy Thunderstorms and Rain
3:31 PM 73.4 °F - 71.6 °F 94% 30.03 in 1.0 mi SSW 13.8 mph 36.8 mph 0.18 in Rain , Thunderstorm Thunderstorms and Rain
3:33 PM 73.4 °F - 71.6 °F 94% 30.03 in 2.0 mi SSW 16.1 mph 31.1 mph 0.19 in Rain , Thunderstorm Thunderstorms and Rain
3:41 PM 73.4 °F - 71.6 °F 94% 30.02 in 4.0 mi South 8.1 mph 23.0 mph 0.21 in Rain , Thunderstorm Light Thunderstorms and Rain
3:52 PM 73.0 °F - 71.1 °F 93% 30.02 in 10.0 mi Calm Calm - 0.21 in Rain , Thunderstorm Light Rain
4:05 PM 73.4 °F - 71.6 °F 94% 30.00 in 10.0 mi SE 4.6 mph - 0.00 in Rain Light Rain
4:52 PM 75.0 °F - 73.0 °F 94% 29.99 in 2.5 mi South 15.0 mph 20.7 mph 0.07 in Rain Heavy Rain
5:01 PM 75.2 °F - 73.4 °F 94% 29.99 in 5.0 mi SSE 13.8 mph 19.6 mph 0.03 in Rain Light Rain
5:52 PM 75.9 °F - 73.9 °F 94% 29.97 in 10.0 mi South 8.1 mph - 0.03 in   Scattered Clouds
6:07 PM 75.2 °F - 73.4 °F 94% 29.96 in 10.0 mi South 8.1 mph - N/A   Mostly Cloudy
6:19 PM 77.0 °F - 73.4 °F 89% 29.96 in 10.0 mi South 10.4 mph - N/A   Mostly Cloudy
6:46 PM 77.0 °F - 73.4 °F 89% 29.96 in 10.0 mi South 13.8 mph 19.6 mph N/A   Mostly Cloudy
6:52 PM 77.0 °F - 72.0 °F 84% 29.96 in 10.0 mi South 9.2 mph 19.6 mph N/A   Mostly Cloudy
7:25 PM 73.4 °F - 71.6 °F 94% 29.96 in 10.0 mi South 9.2 mph - N/A   Mostly Cloudy
7:52 PM 73.9 °F - 71.1 °F 91% 29.94 in 10.0 mi South 6.9 mph - N/A   Mostly Cloudy
8:52 PM 73.9 °F - 72.0 °F 93% 29.93 in 10.0 mi SSE 4.6 mph - N/A   Overcast
9:07 PM 75.2 °F - 71.6 °F 89% 29.93 in 10.0 mi South 3.5 mph - N/A Thunderstorm Overcast
9:18 PM 75.2 °F - 73.4 °F 94% 29.94 in 10.0 mi SW 4.6 mph - N/A Thunderstorm Overcast
9:48 PM 75.2 °F - 73.4 °F 94% 29.94 in 2.5 mi Variable 3.5 mph - 0.12 in Rain Heavy Rain
9:52 PM 75.0 °F - 73.9 °F 96% 29.94 in 3.0 mi South 4.6 mph - 0.12 in Rain Light Rain
10:02 PM 75.2 °F - 73.4 °F 94% 29.95 in 10.0 mi South 5.8 mph - 0.00 in   Overcast
10:22 PM 75.2 °F - 73.4 °F 94% 29.95 in 10.0 mi SSW 9.2 mph - 0.00 in   Overcast
10:37 PM 75.2 °F - 73.4 °F 94% 29.95 in 10.0 mi South 6.9 mph - 0.00 in Thunderstorm Scattered Clouds
10:52 PM 75.9 °F - 73.0 °F 91% 29.95 in 10.0 mi SSW 9.2 mph - 0.00 in   Scattered Clouds
11:52 PM 75.0 °F - 72.0 °F 90% 29.96 in 10.0 mi West 3.5 mph - N/A   Mostly Cloudy